This is the latest recevied weather packets stored in our database for station/object WL7BUN-9. If no packets are shown the sender has not sent any weather packets the latest 10 day(s).
| Time | Temp. | Humidity | Pressure | Rain* | Wind** | Luminosity | Snow |
|---|---|---|---|---|---|---|---|
| 1787428410 | 13.33° C | 68% | 983.1 hPa | 0 mm | - | 1203 W/m² | - |
| 1787427810 | 12.78° C | 69% | 983.3 hPa | 0 mm | - | 1155 W/m² | - |
| 1787427210 | 13.33° C | 69% | 983.3 hPa | 0 mm | - | 1131 W/m² | - |
| 1787426610 | 12.78° C | 78% | 983.4 hPa | 0 mm | - | 1135 W/m² | - |
| 1787426010 | 12.78° C | 71% | 983.2 hPa | 0 mm | - | 1136 W/m² | - |
| 1787425410 | 12.78° C | 72% | 983.2 hPa | 0 mm | - | 1129 W/m² | - |
| 1787424810 | 12.78° C | 71% | 983.3 hPa | 0 mm | - | 1162 W/m² | - |
| 1787424210 | 12.22° C | 74% | 983.1 hPa | 0 mm | - | 1135 W/m² | - |
| 1787423010 | 12.22° C | 86% | 983.1 hPa | 0 mm | - | 1137 W/m² | - |
| 1787422410 | 11.67° C | 84% | 983.1 hPa | 0 mm | - | 1860 W/m² | - |
| 1787421810 | 11.67° C | 88% | 983.2 hPa | 0 mm | - | 1721 W/m² | - |
| 1787421210 | 11.11° C | 90% | 983.1 hPa | 0 mm | - | 1554 W/m² | - |
| 1787420611 | 11.11° C | 90% | 983.1 hPa | 0 mm | - | 1669 W/m² | - |
| 1787420010 | 11.11° C | 89% | 983.2 hPa | 0 mm | - | 1751 W/m² | - |
| 1787419410 | 11.11° C | 89% | 983.1 hPa | 0 mm | - | 1614 W/m² | - |
| 1787418810 | 11.11° C | 89% | 983 hPa | 0 mm | - | 1533 W/m² | - |
| 1787418210 | 11.11° C | 89% | 982.8 hPa | 0 mm | - | 1620 W/m² | - |
| 1787417610 | 11.11° C | 87% | 983 hPa | 0 mm | - | 1704 W/m² | - |
| 1787417010 | 11.11° C | 80% | 983 hPa | 0 mm | - | 1570 W/m² | - |
| 1787416410 | 10.56° C | 91% | 983.2 hPa | 0 mm | - | 1426 W/m² | - |
| 1787415811 | 10.56° C | 91% | 983.2 hPa | 0 mm | - | 1428 W/m² | - |
| 1787415210 | 10.56° C | 89% | 983.3 hPa | 0 mm | - | 1422 W/m² | - |
| 1787414610 | 10.56° C | 88% | 983.2 hPa | 0 mm | - | 1334 W/m² | - |
| 1787414010 | 10° C | 95% | 983.3 hPa | 0 mm | - | 1323 W/m² | - |
| 1787413410 | 10° C | 96% | 983.3 hPa | 0 mm | - | 1324 W/m² | - |
* Rain latest hour (hover to see other rain measurements)
** Current wind speed in m/s (hover to see current wind gust speed)